Columbus, OH

9:28 AM EDT on April 27, 2017 (GMT -0400)
Port Columbus International

Weather History for KCMH - June, 2012

Change the Weather History Date:

Saturday, June 23, 2012

  Actual Average Record
Temperature  
Mean Temperature 77 °F 74 °F  
Max Temperature 87 °F 84 °F 96 °F (1948)
Min Temperature 66 °F 64 °F 44 °F (1918)
Degree Days  
Heating Degree Days 0 0  
Month to date heating degree days 9 18  
Since 1 June heating degree days 9 18  
Since 1 July heating degree days 4209 5245  
Cooling Degree Days 12 9  
Month to date cooling degree days 187 150  
Year to date cooling degree days 407 232  
Since 1 June cooling degree days 187 150  
Growing Degree Days 26 (Base 50)    
Moisture  
Dew Point 53 °F    
Average Humidity 47    
Maximum Humidity 68    
Minimum Humidity 26    
Precipitation  
Precipitation 0.00 in 0.13 in 2.75 in (2016)
Month to date precipitation 1.56 3.12  
Year to date precipitation 18.09 18.69  
Snow  
Snow 0.00 in 0.00 in 0.00 in (2004)
Month to date snowfall 0.0 0.0  
Since 1 June snowfall 0.0 0.0  
Since 1 July snowfall 12.2 26.7  
Snow Depth 0.00 in    
Sea Level Pressure  
Sea Level Pressure 29.99 in    
Wind  
Wind Speed 5 mph (North)    
Max Wind Speed 14 mph    
Max Gust Speed 23 mph    
Visibility 10 miles    
Events      
T = Trace of Precipitation, MM = Missing Value Source: NWS Daily Summary

Daily Weather History Graph

Daily Weather History Graph

Search for Another Location

Airport or City:

Trip Planner

Search our weather history database for the weather conditions in past years. The results will help you decide how hot, cold, wet, or windy it might be!

Date:

Astronomy

Jun. 23, 2012 Rise Set
Actual Time 6:03 AM EDT 9:04 PM EDT
Civil Twilight 5:30 AM EDT 9:37 PM EDT
Nautical Twilight 4:48 AM EDT 10:18 PM EDT
Astronomical Twilight 4:00 AM EDT 11:07 PM EDT
Moon 10:04 AM EDT (6/23) 11:32 PM EDT (6/23)
Length of Visible Light 16h 06m
Length of Day
15h 00m
Waxing Crescent, 16% of the Moon is Illuminated
Jun 23
Waxing Crescent
Jun 26
First Quarter
Jul 3
Full
Jul 10
Last Quarter
Jul 19
New

Hourly Weather History & Observations

Time (EDT) Temp. Heat Index Dew Point Humidity Pressure Visibility Wind Dir Wind Speed Gust Speed Precip Events Conditions
12:51 AM 73.4 °F - 55.4 °F 53% 29.97 in 10.0 mi NNE 3.5 mph - N/A   Scattered Clouds
1:51 AM 71.1 °F - 55.0 °F 57% 29.94 in 10.0 mi Calm Calm - N/A   Scattered Clouds
2:51 AM 69.1 °F - 54.0 °F 58% 29.95 in 10.0 mi East 3.5 mph - N/A   Scattered Clouds
3:51 AM 68.0 °F - 55.0 °F 63% 29.95 in 10.0 mi North 5.8 mph - N/A   Scattered Clouds
4:51 AM 68.0 °F - 53.6 °F 60% 29.97 in 10.0 mi Calm Calm - N/A   Mostly Cloudy
5:51 AM 66.9 °F - 54.0 °F 63% 29.97 in 10.0 mi North 3.5 mph - N/A   Scattered Clouds
6:51 AM 66.0 °F - 55.9 °F 70% 29.99 in 9.0 mi NNE 3.5 mph - N/A   Scattered Clouds
7:51 AM 69.8 °F - 57.2 °F 64% 30.01 in 10.0 mi North 5.8 mph - N/A   Scattered Clouds
8:51 AM 75.2 °F - 55.4 °F 50% 30.01 in 10.0 mi Calm Calm - N/A   Partly Cloudy
9:51 AM 78.1 °F - 54.0 °F 43% 30.01 in 10.0 mi Calm Calm - N/A   Partly Cloudy
10:51 AM 81.0 °F 80.7 °F 55.0 °F 41% 30.01 in 10.0 mi NNW 8.1 mph - N/A   Scattered Clouds
11:51 AM 82.9 °F - 52.0 °F 34% 30.01 in 10.0 mi Calm Calm - N/A   Mostly Cloudy
12:51 PM 84.9 °F - 52.0 °F 32% 30.01 in 10.0 mi North 8.1 mph 23.0 mph N/A   Mostly Cloudy
1:51 PM 84.0 °F - 51.1 °F 32% 30.01 in 10.0 mi NNW 5.8 mph - N/A   Mostly Cloudy
2:51 PM 84.0 °F - 48.9 °F 29% 30.01 in 10.0 mi NNW 8.1 mph - N/A   Mostly Cloudy
3:51 PM 86.0 °F - 50.0 °F 29% 30.00 in 10.0 mi NNW 9.2 mph - N/A   Mostly Cloudy
4:51 PM 87.1 °F - 48.0 °F 26% 30.00 in 10.0 mi NW 8.1 mph - N/A   Scattered Clouds
5:51 PM 86.0 °F - 48.9 °F 28% 29.99 in 10.0 mi North 12.7 mph - N/A   Mostly Cloudy
6:51 PM 84.0 °F - 48.9 °F 29% 29.99 in 10.0 mi North 8.1 mph - N/A   Overcast
7:51 PM 82.9 °F - 50.0 °F 32% 29.99 in 10.0 mi NNE 6.9 mph - N/A   Overcast
8:51 PM 79.0 °F - 51.1 °F 38% 29.99 in 10.0 mi ENE 4.6 mph - N/A   Overcast
9:51 PM 77.0 °F - 53.1 °F 43% 30.01 in 10.0 mi NE 5.8 mph - N/A   Overcast
10:51 PM 75.9 °F - 54.0 °F 46% 30.04 in 10.0 mi ENE 6.9 mph - N/A   Overcast
11:51 PM 73.0 °F - 55.0 °F 53% 30.04 in 10.0 mi ENE 4.6 mph - N/A   Mostly Cloudy